SCP
0 0 0 0 0 0 0 0 0 0 0 0 0 0 0 0 0 0 0 0 0 0 0 0 0 0 0 0 0 0 0 0 0 0 0 0 0 0 0 0 0 0 0 0
0 0 0 0 0 0 0 0 0 0 0 0 0 0 0 0 0 0 0 0 0 0 0 0 0 0 0 0 0 0 0 0 0 0 0 0 0 0 0 0 0 0 0 0
0 0 0 0 0 0 0 0 0 0 0 0 0 0 0 0 0 0 0 0 0 0 0 0 0 0 0 0 0 0 0 0 0 0 0 0 0 0 0 0 0 0 0 0
0 0 0 0 0 0 0 0 0 0 0 0 0 0 0 0 0 0 0 0 0 0 0 0 0 0 0 0 0 0 0 0 0 0 0 0 0 0 0 0 0 0 0 0
0 0 0 0 0 0 0 0 0 0 0 0 0 0 0 0 0 0 0 0 0 0 0 0 0 0 0 0 0 0 0 0 0 0 0 0 0 0 0 0 0 0 0 0
0 0 0 0 0 0 0 0 0 0 0 0 0 0 0 0 0 0 0 0 0 0 0 0 0 0 0 0 0 0 0 0 0 0 0 0 0 0 0 0 0 0 0 0
0 0 0 0 0 0 0 0 0 0 0 0 0 0 0 0 0 0 0 0 0 0 0 0 0 0 0 0 0 0 0 0 0 0 0 0 0 0 0 0 0 0 0 0
0 0 0 0 0 0 0 0 0 0 0 0 0 0 0 0 0 0 0 0 0 0 0 0 0 0 0 0 0 0 0 0 0 0 0 0 0 0 0 0 0 0 0 0
0 0 0 0 0 0 0 0 0 0 0 0 0 0 0 0 0 0 0 0 0 0 0 0 0 0 0 0 0 0 0 0 0 0 0 0 0 0 0 0 0 0 0 0
0 0 0 0 0 0 0 0 0 0 0 0 0 0 0 0 0 0 0 0 0 0 0 0 0 0 0 0 0 0 0 0 0 0 0 0 0 0 0 0 0 0 0 0
0 0 0 0 0 0 0 0 0 0 0 0 0 0 0 0 0 0 0 0 0 0 0 0 0 0 0 0 0 0 0 0 0 0 0 0 0 0 0 0 0 0 0 0
0 0 0 0 0 0 0 0 0 0 0 0 0 0 0 0 0 0 0 0 0 0 0 0 0 0 0 0 0 0 0 0 0 0 0 0 0 0 0 0 0 0 0 0
0 0 0 0 0 0 0 0 0 0 0 0 0 0 0 0 0 0 0 0 0 0 0 0 0 0 0 0 0 0 0 0 0 0 0 0 0 0 0 0 0 0 0 0
0 0 0 0 0 0 0 0 0 0 0 0 0 0 0 0 0 0 0 0 0 0 0 0 0 0 0 0 0 0 0 0 0 0 0 0 0 0 0 0 0 0 0 0
0 0 0 0 0 0 0 0 0 0 0 0 0 0 0 0 0 0 0 0 0 0 0 0 0 0 0 0 0 0 0 0 0 0 0 0 0 0 0 0 0 0 0 0
0 0 0 0 0 0 0 0 0 0 0 0 0 0 0 0 0 0 0 0 0 0 0 0 0 0 0 0 0 0 0 0 0 0 0 0 0 0 0 0 0 0 0 0
0 0 0 0 0 0 0 0 0 0 0 0 0 0 0 0 0 0 0 0 0 0 0 0 0 0 0 0 0 0 0 0 0 0 0 0 0 0 0 0 0 0 0 0
0 0 0 0 0 0 0 0 0 0 0 0 0 0 0 0 0 0 0 0 0 0 0 0 0 0 0 0 0 0 0 0 0 0 0 0 0 0 0 0 0 0 0 0
0 0 0 0 0 0 0 0 0 0 0 0 0 0 0 0 0 0 0 0 0 0 0 0 0 0 0 0 0 0 0 0 0 0 0 0 0 0 0 0 0 0 0 0
0 0 0 0 0 0 0 0 0 0 0 0 0 0 0 0 0 0 0 0 0 0 0 0 0 0 0 0 0 0 0 0 0 0 0 0 0 0 0 0 0 0 0 0
0 0 0 0 0 0 0 0 0 0 0 0 0 0 0 0 0 0 0 0 0 0 0 0 0 0 0 0 0 0 0 0 0 0 0 0 0 0 0 0 0 0 0 0
0 0 0 0 0 0 0 0 -0 0 0 0 0 0 0 0 0 0 0 0 0 0 0 0 0 0 0 0 0 0 0 0 0 0 0 0 0 0 0 0 0 0 0 0
0 0 0 0 0 0 0 0 -0 0 0 0 0 0 0 0 0 0 0 0 0 0 0 0 0 0 0 0 0 0 0 0 0 0 0 0 0 0 0 0 0 0 0 0
0 0 0 0 0 0 0 0 -0 0 0 0 0 0 0 0 0 0 0 0 0 0 0 0 0 0 0 0 0 0 0 0 0 0 0 0 0 0 0 0 0 0 0 0
0 0 0 0 0 0 0 0 0 0 0 0 0 0 0 0 0 0 0 0 0 0 0 0 0 0 0 0 0 0 0 0 0 0 0 0 0 0 0 0 0 0 0 0
0 0 0 0 0 0 0 0 0 0 0 0 0 0 0 0 0 0 0 0 0 0 0 0 0 0 0 0 0 0 0 0 0 0 0 0 0 0 0 0 0 0 0 0
Wind_Speed
12 14 18 19 20 16 12 12 13 11 6 8 14 18 19 17 16 17 18 17 17 17 15 11 12 13 14 14 16 17 18 17 15 12 11 10 9 8 7 6 8 9 8 8
12 22 21 17 16 16 16 16 16 12 6 8 14 20 20 18 19 19 19 19 18 16 13 12 12 13 15 16 17 17 18 18 17 13 12 9 9 7 6 6 7 8 8 8
25 16 17 16 16 18 19 19 18 15 10 10 13 18 16 13 14 15 17 17 17 16 16 14 15 15 15 16 17 15 18 18 18 16 11 8 7 5 5 7 6 8 8 8
23 15 13 18 21 20 20 17 15 15 14 12 8 14 13 13 14 15 16 14 14 14 14 14 15 16 16 15 14 16 17 17 17 16 14 15 11 10 9 8 7 8 8 8
17 18 18 21 21 20 15 8 11 12 14 17 14 14 13 9 13 13 12 10 10 10 12 13 14 15 14 14 13 14 16 17 17 17 16 16 13 10 8 9 10 9 7 7
15 10 17 20 14 15 9 6 4 5 9 17 16 15 13 9 11 11 8 6 6 6 9 11 11 12 12 12 12 13 15 16 16 17 17 17 16 13 13 12 11 8 6 6
17 12 9 8 12 13 14 11 8 9 10 12 6 11 13 11 11 11 12 11 8 5 7 10 12 14 14 14 14 14 16 16 16 17 16 16 16 15 15 14 12 10 8 7
22 18 18 14 17 15 20 19 13 9 9 6 7 12 10 9 9 10 11 10 8 6 6 9 12 13 14 15 15 16 16 16 16 16 15 14 14 11 10 12 11 10 8 8
19 17 14 17 14 16 16 18 18 12 9 9 10 9 9 10 10 8 7 6 6 5 7 9 11 13 14 15 15 16 16 16 16 16 15 14 14 12 11 11 11 9 8 8
15 15 11 12 8 14 14 13 9 11 11 13 12 13 10 10 11 8 5 5 4 4 6 9 10 12 12 13 13 14 15 15 15 15 13 10 13 12 11 11 11 10 10 10
17 14 9 13 19 21 16 17 13 12 12 10 10 8 7 11 8 6 5 4 4 3 6 8 10 11 11 12 13 14 14 14 14 14 14 13 12 12 12 11 11 11 10 11
19 14 11 14 10 13 21 21 21 15 14 12 11 9 4 7 6 6 6 4 3 3 5 8 9 11 12 13 13 14 14 14 14 14 13 13 12 12 12 12 11 11 11 11
16 13 12 9 9 9 18 21 23 20 15 15 16 11 4 6 6 7 6 4 2 3 5 7 9 11 12 13 13 14 14 14 13 13 13 13 13 13 13 12 12 11 11 10
14 14 19 20 12 16 18 21 22 22 17 20 23 20 12 10 10 9 7 6 4 4 6 8 10 11 12 13 13 14 14 14 14 14 14 14 14 14 13 12 12 11 11 10
11 16 19 18 11 13 18 22 25 27 27 23 22 22 21 18 16 13 11 8 6 7 8 10 11 11 12 13 14 14 14 14 14 14 14 14 13 13 12 12 11 11 10 9
12 13 17 17 14 14 15 20 25 28 28 29 25 23 18 18 16 16 15 11 10 10 9 10 11 12 13 14 14 14 14 14 15 15 14 13 13 12 12 12 11 11 10 9
13 11 13 15 14 12 20 24 23 23 25 23 26 25 18 16 16 17 16 13 12 11 9 9 11 12 13 13 14 15 15 14 15 14 14 13 13 13 12 12 11 11 11 10
15 14 8 8 12 17 15 13 22 23 23 23 21 18 18 18 17 15 14 13 13 11 9 9 9 10 10 11 12 12 13 14 14 14 13 13 13 13 12 12 12 11 10 9
17 15 8 8 12 14 9 9 16 20 22 22 23 22 18 11 9 12 13 13 12 10 8 6 7 7 8 10 11 12 13 13 13 14 14 14 13 13 13 13 12 10 9 9
14 14 10 9 12 15 12 12 11 12 16 16 20 21 18 11 10 10 8 8 8 6 4 4 5 6 8 9 11 12 13 13 14 13 13 13 13 13 13 12 11 9 8 8
14 13 16 14 13 13 6 10 15 14 11 8 15 18 16 16 13 5 5 5 4 4 4 5 6 7 7 9 11 12 12 12 11 10 11 11 11 11 11 10 9 8 7 6
16 13 15 14 14 13 9 14 16 9 3 6 9 12 14 14 9 5 5 5 5 5 6 6 7 7 7 9 11 10 10 9 9 10 10 10 10 9 8 9 8 7 7 7
14 14 10 13 12 3 13 13 10 4 5 6 7 8 10 10 9 8 7 7 6 6 6 6 8 8 7 8 8 9 9 9 10 10 10 9 9 8 8 8 8 7 6 5
8 7 8 9 11 9 10 9 7 6 5 5 5 7 9 9 9 9 8 7 7 7 7 7 8 9 8 7 7 8 9 10 10 10 9 8 8 7 7 6 6 6 6 5
8 9 10 12 7 7 10 12 11 8 5 4 4 5 8 9 9 9 8 8 8 7 7 7 7 8 8 8 8 8 9 10 10 9 8 7 6 7 6 5 5 6 6 6
9 11 13 12 10 9 10 11 11 10 10 9 8 6 6 7 8 8 8 8 8 8 8 8 8 8 9 8 8 8 8 9 9 7 7 5 5 4 4 4 3 4 7 8
Wind_Direction
188 206 213 213 218 234 242 243 249 253 241 244 262 271 275 277 268 263 262 257 249 243 237 215 203 199 195 194 194 192 189 188 185 183 184 183 185 183 182 184 184 185 187 188
194 221 221 220 220 227 234 243 254 265 252 254 275 277 277 272 266 262 261 258 252 245 228 208 198 194 193 191 191 190 188 186 185 185 184 185 178 179 174 172 179 183 185 185
211 218 213 212 212 219 230 240 250 259 267 252 281 277 266 264 262 260 257 257 254 244 231 211 199 195 191 190 189 187 186 185 185 182 175 164 155 152 166 174 177 181 181 182
224 215 196 207 216 218 234 233 247 257 266 272 272 288 282 275 271 265 259 253 249 241 232 216 200 194 191 188 183 183 183 183 183 180 180 178 181 183 184 178 174 172 176 176
216 207 201 212 217 216 233 226 229 247 260 270 256 268 276 268 266 268 268 262 256 243 228 215 203 194 187 179 177 179 179 180 181 183 185 186 190 185 173 169 169 168 167 171
224 207 216 223 219 213 179 144 170 225 252 258 252 251 273 250 256 274 281 282 277 251 228 214 198 186 178 173 173 175 177 179 181 184 187 190 188 177 170 172 170 168 163 167
213 209 205 203 188 183 189 203 221 227 225 247 219 237 257 255 255 269 282 289 292 260 222 202 188 182 177 174 174 175 177 179 181 184 188 190 187 182 180 177 176 171 169 172
207 212 200 196 198 190 200 207 217 232 240 240 192 237 255 264 269 269 270 277 279 251 215 199 191 185 180 177 176 177 179 179 181 184 186 187 184 184 183 180 175 178 177 174
208 216 193 198 201 193 193 213 228 250 265 266 240 242 270 268 261 254 262 267 265 241 212 199 190 187 182 180 180 180 179 179 181 183 182 183 182 181 177 174 174 175 171 163
217 214 186 181 182 203 208 192 193 217 236 244 248 244 244 246 255 266 281 286 278 230 205 196 190 187 183 182 180 181 182 181 180 181 181 180 181 178 172 170 172 171 166 165
215 209 176 181 197 191 187 195 201 211 229 240 249 238 218 236 247 261 280 296 287 228 200 193 189 185 182 179 179 182 182 180 180 181 179 179 177 174 172 172 173 169 168 170
207 213 204 202 205 218 204 203 203 210 215 229 252 254 184 227 242 250 267 287 280 220 196 190 186 182 182 182 183 184 183 184 183 180 179 178 173 172 174 174 173 171 171 174
190 204 200 195 206 207 215 216 215 222 233 228 234 242 180 224 238 239 250 264 247 200 186 185 186 189 189 188 187 188 187 186 182 179 179 176 175 176 178 175 172 173 173 174
196 207 211 216 207 190 204 210 213 217 227 234 235 242 231 235 244 247 250 261 254 217 199 195 194 196 194 193 191 191 190 186 181 181 182 181 180 180 178 174 172 174 175 176
205 218 221 232 223 193 204 207 209 216 226 236 242 242 242 244 253 260 266 265 254 236 215 206 204 199 196 195 194 193 190 186 182 183 185 185 181 177 174 172 173 174 176 179
210 222 218 222 216 210 219 218 214 220 228 237 247 251 248 251 254 257 258 255 251 247 229 215 209 204 201 199 196 192 191 187 184 186 186 181 176 174 174 174 173 173 177 179
202 210 207 218 209 217 233 223 219 221 225 231 239 245 246 244 243 247 251 250 248 247 236 219 210 207 204 200 196 193 190 183 186 188 184 179 177 176 176 173 174 178 181 183
202 209 213 204 190 222 237 219 219 226 230 229 238 246 244 243 246 249 249 248 246 241 234 223 213 208 203 196 192 188 183 182 185 186 183 180 178 178 175 176 180 182 184 189
204 200 198 200 212 235 232 207 207 215 233 229 233 239 243 244 253 250 239 236 240 241 234 222 208 199 188 184 179 176 178 180 184 187 185 181 179 177 177 181 183 183 186 193
202 204 201 204 214 226 226 190 189 201 240 229 224 231 232 209 230 241 216 209 222 225 209 193 177 171 172 170 168 171 176 180 187 186 182 178 179 179 181 182 181 182 188 195
189 199 208 212 223 238 211 156 159 195 231 202 208 218 214 209 224 220 159 170 181 175 167 159 157 158 160 160 164 170 173 183 181 174 172 174 177 180 181 178 178 181 184 192
190 193 202 208 220 225 162 161 188 210 174 179 195 205 206 212 215 189 170 163 154 148 147 148 144 140 144 156 162 165 170 165 159 161 165 168 172 171 174 174 177 181 185 197
203 200 199 207 222 209 171 193 207 187 186 190 191 196 193 194 197 190 185 175 163 156 148 146 141 134 139 154 161 158 152 149 152 156 160 162 165 168 173 176 177 181 190 204
215 209 208 218 225 215 206 213 216 208 206 195 190 179 177 183 183 180 173 167 161 156 153 148 145 142 142 147 149 143 143 149 152 155 156 159 164 168 173 176 181 188 198 209
206 197 211 225 227 220 224 221 220 215 213 190 180 185 186 178 176 176 172 170 163 155 152 154 152 145 142 142 139 139 147 151 152 152 154 159 166 170 176 185 196 205 213 215
200 202 209 223 213 211 224 225 219 211 212 203 188 183 189 186 176 168 166 161 158 155 152 150 147 143 142 142 140 144 151 154 151 152 158 163 167 171 180 189 211 224 234 237